Regional Weather Roundup
Issued by NWS

Home | Current Version | Previous Version | Text Only | Print | Product List | Glossary On
Versions: 1 2 3 4 5 6 7 8 9 10 11 12 13 14 15 16 17 18 19 20 21 22 23 24 25 26 27 28 29 30 31 32 33 34 35 36 37 38 39 40 41 42 43 44 45 46 47 48
000
ASUS42 KFFC 302303
RWRGA
WEATHER ROUNDUP FOR GEORGIA
NATIONAL WEATHER SERVICE PEACHTREE CITY GA
700 PM EDT WED JUL 30 2014

NOTE: "FAIR" INDICATES FEW OR NO CLOUDS BELOW 12,000 FEET WITH NO
SIGNIFICANT WEATHER AND/OR OBSTRUCTIONS TO VISIBILITY.

* = USE WITH CAUTION. THE STATIONS MARKED WITH AN ASTERISK MAY NOT
REPORT WEATHER SUCH AS PRECIPITATION, FOG, OR THUNDER AND ARE NOT
QUALITY CONTROLLED BY NWS.

THE REMARK "TC" DENOTES TEMPERATURE READING IN DEGREES CELSIUS.

GAZ001>058-310000-
NORTH GEORGIA

CITY           SKY/WX    TMP DP  RH WIND       PRES   REMARKS
ATLANTA        MOSUNNY   82  56  40 VRB6      30.02F
ATHENS         SUNNY     83  60  45 VRB5      30.02S
CHAMBLEE       SUNNY     82  54  37 N6        30.03F
PEACHTREE CITY MOSUNNY   84  55  36 N9        30.02S
ROME           SUNNY     82  55  39 N8        30.03S
WEST ATLANTA   SUNNY     83  58  42 N3        30.02F
GAINESVILLE    SUNNY     80  52  37 E6        30.07S
CARTERSVILLE   CLOUDY    83  54  36 VRB3      30.03F


CITY           SKY/WX    TMP DP  RH WIND       PRES   REMARKS
DALTON*        SUNNY     79  59  50 CALM      30.05S
LAWRENCEVILLE* SUNNY     82  55  39 NE7       30.04S
MARIETTA       PTSUNNY   82  56  41 N6        30.04S
KENNESAW*      MOSUNNY   82  54  36 CALM      30.05F
$$

GAZ059>098-102>109-310000-
CENTRAL GEORGIA

CITY           SKY/WX    TMP DP  RH WIND       PRES   REMARKS
AUGUSTA-BUSH   MOSUNNY   85  66  53 SE8       29.97R
AUGUSTA-DANIEL PTSUNNY   86  65  49 SE8       29.99R
COLUMBUS       SUNNY     85  56  37 CALM      29.99S
MACON          SUNNY     85  57  38 N5        29.99R
ROBINS AFB     SUNNY     86  63  46 NE3       29.98S


CITY           SKY/WX    TMP DP  RH WIND       PRES   REMARKS
LAGRANGE*      SUNNY     85  62  45 N5        30.01S
SYLVANIA*      MOSUNNY   79  74  84 E8        29.99S
MILLEDGEVILLE* SUNNY     81  54  39 CALM      29.99R
$$

GAZ099>101-110>166-310000-
SOUTH GEORGIA

CITY           SKY/WX    TMP DP  RH WIND       PRES   REMARKS
SAVANNAH       LGT RAIN  81  74  79 SE7       29.97S
VALDOSTA       MOSUNNY   89  60  37 CALM      29.96S
ALMA           MOSUNNY   91  57  31 CALM      29.94S
ST SIMONS      MOSUNNY   83  71  67 E12G21    29.95R
FT STEWART     PTSUNNY   83  73  72 SE16      29.95R
ALBANY         MOSUNNY   86  56  35 VRB5      29.98F
HUNTER AFB     MOSUNNY   83  73  69 SE13G22   29.95R
MOODY AFB      MOSUNNY   88  70  55 W6        29.95S HX  93
BRUNSWICK      MOSUNNY   86  72  62 E7        29.95S HX  92


CITY           SKY/WX    TMP DP  RH WIND       PRES   REMARKS
BAINBRIDGE*    SUNNY     88  63  42 NW7       29.97S
MOULTRIE*      SUNNY     86  55  35 N6        29.98S
VIDALIA*         N/A     88  63  42 NE7       29.96S
WAYCROSS*      SUNNY     91  64  41 CALM      29.94S HX  92
DOUGLAS*       PTSUNNY   90  54  29 NW5       29.96S
$$



USA.gov is the U.S. government's official web portal to all federal, state and local government web resources and services.